When you browse on this site, cookies collect data to enhance your experience and personalize the content and advertising you see.
Visit our Privacy Policy to learn more. By continuing to use the site, you agree to this use of cookies and data.
  • In Deutschland
  • Länderverzeichnis
  • Für 7 Tage
  • Wassertemperatur
  • Satellitenkarten
  • Wetterkarte
  • Widgets
  • user-avatar
    Anmelden

    Stündliche Wetter Brest

    Heute, 25 April, Donnerstag

    Zeit Temperatur Niederschläge Wind Luftdruck Luftfeuchtigkeit
    00:00 +12°C° 0 mm 5 m/S 753 mmHg 66%
    01:00 +10°C° 0 mm 5 m/S 753 mmHg 67%
    02:00 +11°C° 0 mm 4 m/S 752 mmHg 69%
    03:00 +10°C° 0 mm 4 m/S 752 mmHg 70%
    04:00 +10°C° 0 mm 4 m/S 752 mmHg 71%
    05:00 +8°C° 0 mm 4 m/S 752 mmHg 72%
    06:00 +10°C° 0 mm 4 m/S 752 mmHg 70%
    07:00 +10°C° 0 mm 5 m/S 752 mmHg 69%
    08:00 +13°C° 0 mm 4 m/S 752 mmHg 68%
    09:00 +15°C° 0 mm 5 m/S 752 mmHg 64%
    10:00 +17°C° 0 mm 5 m/S 752 mmHg 61%
    11:00 +19°C° 0 mm 5 m/S 751 mmHg 58%
    12:00 +21°C° 0.1 mm 5 m/S 751 mmHg 55%
    13:00 +22°C° 0.1 mm 5 m/S 751 mmHg 53%
    14:00 +23°C° 0.1 mm 5 m/S 751 mmHg 51%
    15:00 +23°C° 0.2 mm 5 m/S 751 mmHg 53%
    16:00 +22°C° 0.2 mm 5 m/S 750 mmHg 55%
    17:00 +22°C° 0.2 mm 5 m/S 750 mmHg 58%
    18:00 +20°C° 0 mm 5 m/S 750 mmHg 65%
    19:00 +19°C° 0 mm 4 m/S 750 mmHg 71%
    20:00 +17°C° 0 mm 4 m/S 750 mmHg 78%
    21:00 +17°C° 0 mm 3 m/S 750 mmHg 80%
    22:00 +16°C° 0 mm 3 m/S 750 mmHg 82%
    23:00 +16°C° 0 mm 3 m/S 750 mmHg 85%

    Morgen, 26 April, Freitag

    Zeit Temperatur Niederschläge Wind Luftdruck Luftfeuchtigkeit
    00:00 +14°C° 0.1 mm 3 m/S 750 mmHg 87%
    01:00 +13°C° 0.1 mm 3 m/S 750 mmHg 90%
    02:00 +13°C° 0.1 mm 3 m/S 749 mmHg 93%
    03:00 +13°C° 0.1 mm 3 m/S 749 mmHg 94%
    04:00 +12°C° 0.1 mm 3 m/S 749 mmHg 95%
    05:00 +12°C° 0.1 mm 3 m/S 749 mmHg 96%
    06:00 +13°C° 0 mm 3 m/S 748 mmHg 92%
    07:00 +14°C° 0 mm 3 m/S 748 mmHg 88%
    08:00 +15°C° 0 mm 4 m/S 748 mmHg 84%
    09:00 +18°C° 0 mm 4 m/S 748 mmHg 77%
    10:00 +20°C° 0 mm 4 m/S 748 mmHg 70%
    11:00 +22°C° 0 mm 4 m/S 747 mmHg 62%
    12:00 +23°C° 0 mm 5 m/S 747 mmHg 58%
    13:00 +25°C° 0 mm 5 m/S 746 mmHg 54%
    14:00 +26°C° 0 mm 5 m/S 746 mmHg 50%
    15:00 +26°C° 0 mm 4 m/S 746 mmHg 51%
    16:00 +26°C° 0 mm 4 m/S 745 mmHg 51%
    17:00 +26°C° 0 mm 4 m/S 745 mmHg 52%
    18:00 +23°C° 0 mm 4 m/S 745 mmHg 59%
    19:00 +21°C° 0 mm 3 m/S 744 mmHg 65%
    20:00 +20°C° 0 mm 3 m/S 744 mmHg 72%
    21:00 +19°C° 0.5 mm 3 m/S 744 mmHg 76%
    22:00 +18°C° 0.5 mm 3 m/S 744 mmHg 80%
    23:00 +17°C° 0.5 mm 3 m/S 744 mmHg 84%

    übermorgen, 27 April, Samstag

    Zeit Temperatur Niederschläge Wind Luftdruck Luftfeuchtigkeit
    00:00 +17°C° 0.6 mm 3 m/S 744 mmHg 86%
    01:00 +16°C° 0.6 mm 3 m/S 744 mmHg 87%
    02:00 +16°C° 0.6 mm 3 m/S 744 mmHg 88%
    03:00 +16°C° 0 mm 3 m/S 744 mmHg 87%
    04:00 +16°C° 0 mm 3 m/S 743 mmHg 85%
    05:00 +15°C° 0 mm 2 m/S 743 mmHg 84%
    06:00 +16°C° 0 mm 3 m/S 743 mmHg 79%
    07:00 +18°C° 0 mm 4 m/S 743 mmHg 75%
    08:00 +19°C° 0 mm 5 m/S 743 mmHg 70%
    09:00 +20°C° 0 mm 5 m/S 743 mmHg 68%
    10:00 +21°C° 0 mm 6 m/S 744 mmHg 65%
    11:00 +22°C° 0 mm 6 m/S 744 mmHg 62%
    12:00 +22°C° 0.1 mm 6 m/S 744 mmHg 62%
    13:00 +22°C° 0.1 mm 6 m/S 744 mmHg 61%
    14:00 +22°C° 0.1 mm 6 m/S 744 mmHg 61%
    15:00 +22°C° 0.1 mm 6 m/S 744 mmHg 62%
    16:00 +21°C° 0.1 mm 6 m/S 744 mmHg 63%
    17:00 +21°C° 0.1 mm 5 m/S 743 mmHg 65%
    18:00 +19°C° 0 mm 5 m/S 744 mmHg 69%
    19:00 +18°C° 0 mm 4 m/S 744 mmHg 74%
    20:00 +16°C° 0 mm 3 m/S 744 mmHg 79%
    21:00 +16°C° 0 mm 3 m/S 744 mmHg 81%
    22:00 +14°C° 0 mm 3 m/S 744 mmHg 84%
    23:00 +13°C° 0 mm 3 m/S 744 mmHg 87%

    28 April, Sonntag

    Zeit Temperatur Niederschläge Wind Luftdruck Luftfeuchtigkeit
    00:00 +12°C° 0 mm 3 m/S 744 mmHg 87%
    01:00 +12°C° 0 mm 3 m/S 744 mmHg 87%
    02:00 +12°C° 0 mm 4 m/S 744 mmHg 88%
    03:00 +11°C° 0 mm 3 m/S 744 mmHg 89%
    04:00 +11°C° 0 mm 3 m/S 744 mmHg 91%
    05:00 +11°C° 0 mm 3 m/S 744 mmHg 93%
    06:00 +12°C° 0 mm 3 m/S 744 mmHg 90%
    07:00 +12°C° 0 mm 4 m/S 745 mmHg 87%
    08:00 +12°C° 0 mm 4 m/S 745 mmHg 84%
    09:00 +13°C° 0 mm 4 m/S 745 mmHg 80%
    10:00 +15°C° 0 mm 4 m/S 745 mmHg 75%
    11:00 +17°C° 0 mm 4 m/S 745 mmHg 70%
    12:00 +17°C° 0 mm 4 m/S 745 mmHg 70%
    13:00 +17°C° 0 mm 4 m/S 745 mmHg 70%
    14:00 +17°C° 0 mm 5 m/S 744 mmHg 70%
    15:00 +16°C° 0 mm 5 m/S 744 mmHg 72%
    16:00 +16°C° 0 mm 5 m/S 744 mmHg 73%
    17:00 +17°C° 0 mm 4 m/S 744 mmHg 74%
    18:00 +15°C° 0 mm 4 m/S 744 mmHg 77%
    19:00 +15°C° 0 mm 4 m/S 744 mmHg 81%
    20:00 +14°C° 0 mm 3 m/S 744 mmHg 84%
    21:00 +14°C° 0.2 mm 4 m/S 744 mmHg 86%
    22:00 +14°C° 0.2 mm 4 m/S 745 mmHg 89%
    23:00 +14°C° 0.2 mm 4 m/S 745 mmHg 91%

    29 April, Montag

    Zeit Temperatur Niederschläge Wind Luftdruck Luftfeuchtigkeit
    00:00 +13°C° 0.2 mm 5 m/S 745 mmHg 90%
    01:00 +13°C° 0.2 mm 5 m/S 745 mmHg 89%
    02:00 +11°C° 0.2 mm 6 m/S 745 mmHg 87%
    03:00 +11°C° 0.2 mm 6 m/S 745 mmHg 87%
    04:00 +10°C° 0.2 mm 6 m/S 745 mmHg 88%
    05:00 +10°C° 0.2 mm 6 m/S 746 mmHg 88%
    06:00 +9°C° 0.4 mm 6 m/S 746 mmHg 85%
    07:00 +9°C° 0.4 mm 7 m/S 746 mmHg 83%
    08:00 +8°C° 0.4 mm 7 m/S 747 mmHg 81%
    09:00 +9°C° 0 mm 7 m/S 747 mmHg 76%
    10:00 +9°C° 0 mm 7 m/S 747 mmHg 71%
    11:00 +10°C° 0 mm 7 m/S 748 mmHg 66%
    12:00 +11°C° 0 mm 7 m/S 748 mmHg 63%
    13:00 +12°C° 0 mm 8 m/S 748 mmHg 60%
    14:00 +13°C° 0 mm 8 m/S 748 mmHg 57%
    15:00 +14°C° 0 mm 7 m/S 748 mmHg 56%
    16:00 +14°C° 0 mm 7 m/S 748 mmHg 55%
    17:00 +14°C° 0 mm 7 m/S 748 mmHg 54%
    18:00 +13°C° 0 mm 6 m/S 748 mmHg 54%
    19:00 +11°C° 0 mm 6 m/S 748 mmHg 53%
    20:00 +10°C° 0 mm 5 m/S 749 mmHg 53%
    21:00 +9°C° 0 mm 5 m/S 749 mmHg 54%
    22:00 +8°C° 0 mm 5 m/S 749 mmHg 55%
    23:00 +7°C° 0 mm 5 m/S 749 mmHg 57%

    30 April, Dienstag

    Zeit Temperatur Niederschläge Wind Luftdruck Luftfeuchtigkeit
    00:00 +6°C° 0 mm 5 m/S 749 mmHg 59%
    01:00 +5°C° 0 mm 5 m/S 749 mmHg 61%
    02:00 +5°C° 0 mm 4 m/S 749 mmHg 64%
    03:00 +4°C° 0 mm 4 m/S 749 mmHg 66%
    04:00 +4°C° 0 mm 4 m/S 750 mmHg 67%
    05:00 +3°C° 0 mm 4 m/S 750 mmHg 69%
    06:00 +3°C° 0 mm 5 m/S 750 mmHg 66%
    07:00 +6°C° 0 mm 5 m/S 750 mmHg 62%
    08:00 +7°C° 0 mm 6 m/S 750 mmHg 59%
    09:00 +8°C° 0 mm 6 m/S 750 mmHg 55%
    10:00 +9°C° 0 mm 6 m/S 750 mmHg 51%
    11:00 +11°C° 0 mm 7 m/S 750 mmHg 47%
    12:00 +11°C° 0 mm 6 m/S 750 mmHg 47%
    13:00 +13°C° 0 mm 6 m/S 749 mmHg 46%
    14:00 +14°C° 0 mm 6 m/S 749 mmHg 45%
    15:00 +14°C° 0 mm 6 m/S 749 mmHg 45%
    16:00 +14°C° 0 mm 6 m/S 749 mmHg 46%
    17:00 +13°C° 0 mm 6 m/S 749 mmHg 46%
    18:00 +12°C° 0 mm 5 m/S 749 mmHg 51%
    19:00 +11°C° 0 mm 4 m/S 749 mmHg 56%
    20:00 +9°C° 0 mm 3 m/S 750 mmHg 60%
    21:00 +8°C° 0 mm 3 m/S 750 mmHg 62%
    22:00 +8°C° 0 mm 3 m/S 750 mmHg 64%
    23:00 +7°C° 0 mm 3 m/S 750 mmHg 66%
    Mehr zeigen